Cloud_Cover
0 0 0 0 23 50 84 86 53 43 88 0 28 0 0 0 0 0 2 9 5 5 53 7 23 92 19 19 5 5 5 5 5 5 18 22 5 63 100 100 100 61 81
0 0 0 0 0 27 100 72 88 50 58 1 0 0 0 0 0 0 2 2 52 2 3 5 38 100 100 90 100 52 5 5 9 5 18 89 41 5 100 100 82 37 38
0 0 0 0 0 3 96 100 91 79 53 1 10 8 13 9 14 1 0 11 15 7 5 4 5 38 69 98 57 97 5 17 7 5 4 5 5 30 80 84 33 18 59
0 0 0 0 0 0 87 88 100 99 73 6 2 3 0 0 0 0 0 0 2 0 3 5 5 10 74 6 6 38 66 49 37 23 5 5 55 84 89 99 100 77 5
0 0 0 0 0 4 56 100 100 100 88 96 21 11 1 2 3 10 0 0 0 0 1 5 14 43 60 100 22 16 91 100 95 78 21 28 79 93 100 100 96 97 100
0 0 0 0 0 3 50 100 100 63 97 64 55 24 26 0 22 13 14 9 0 0 2 0 7 9 2 74 23 19 16 48 100 81 8 90 86 90 89 97 88 54 28
0 0 0 0 0 0 19 44 94 47 25 80 64 14 31 46 24 4 3 1 16 22 42 0 1 11 10 40 12 32 55 99 35 98 10 68 43 10 5 9 21 37 58
0 0 0 0 0 0 1 20 31 41 42 40 86 77 64 12 54 33 38 36 0 0 2 0 30 37 51 14 78 91 51 100 100 99 5 5 5 9 5 7 9 10 23
0 0 0 0 0 0 0 0 8 19 53 51 69 100 100 57 5 18 8 81 43 41 0 0 0 16 11 5 74 100 4 4 92 100 99 49 59 76 64 14 45 17 5
0 0 0 0 0 0 0 0 0 0 0 40 89 55 67 99 83 96 21 28 100 68 83 62 47 23 0 5 14 88 79 78 5 44 100 100 100 100 92 50 100 92 36
0 0 0 0 0 0 0 0 0 0 11 26 11 76 87 91 98 100 69 8 57 15 76 16 58 51 44 24 12 1 53 40 26 4 35 100 100 100 100 79 100 66 10
0 0 0 0 0 0 0 0 0 0 17 29 89 92 52 100 100 80 21 9 95 82 100 100 21 100 83 65 57 42 2 21 41 14 94 25 62 100 100 100 100 41 41
0 0 0 0 0 0 0 4 28 87 100 61 60 97 100 23 75 12 9 12 49 94 100 100 11 58 27 100 54 50 47 16 70 74 84 74 86 79 100 99 65 100 100
0 0 0 0 3 0 32 58 62 85 100 92 80 98 64 98 43 100 96 33 33 47 73 53 5 61 99 19 34 94 41 42 12 80 98 46 31 36 100 100 94 100 100
0 0 5 63 81 57 65 94 81 96 98 100 71 67 93 100 42 93 86 78 71 20 5 39 37 84 100 98 17 15 43 60 17 99 100 100 99 79 100 100 100 100 100
0 0 81 83 97 40 96 97 70 100 100 83 56 40 100 84 38 40 99 63 53 29 42 28 63 100 93 100 100 100 100 88 100 100 100 100 100 97 100 100 100 100 100
1 20 40 51 89 100 100 100 100 100 100 100 100 65 60 44 32 45 36 71 77 26 53 100 100 100 100 100 100 100 100 100 100 100 88 100 98 94 100 100 100 100 100
27 40 69 78 100 100 100 100 100 100 100 100 88 96 93 100 95 56 72 77 100 100 100 100 100 100 76 47 100 100 91 100 99 100 99 100 100 100 79 94 100 100 100
83 98 100 100 100 100 100 100 100 100 100 100 100 100 100 100 100 100 100 100 100 100 100 100 100 100 84 77 72 97 100 100 100 100 100 100 98 92 99 100 100 100 100
100 100 100 100 100 100 100 100 100 100 100 100 100 100 100 100 100 100 100 100 100 100 100 100 100 100 100 85 99 100 100 100 100 100 100 100 100 100 100 100 100 100 100
100 100 100 100 100 100 100 100 100 100 100 100 100 100 100 100 100 100 100 100 100 100 100 100 100 100 100 100 100 100 85 83 100 100 100 100 100 100 100 100 100 100 100
100 100 100 100 100 100 100 100 100 100 100 100 100 100 100 100 100 100 100 100 100 100 100 99 100 100 100 100 100 100 99 100 100 100 100 100 100 100 100 100 100 100 100
100 100 100 100 100 100 100 100 100 100 100 100 100 100 100 100 100 100 100 100 100 100 100 100 99 91 100 100 100 100 99 100 98 100 100 100 100 100 100 100 100 100 100
100 100 100 100 100 100 100 100 100 100 100 100 100 100 100 100 100 100 100 100 100 100 99 42 98 98 83 94 96 28 85 100 100 100 100 93 100 100 100 100 100 100 100
100 100 100 100 100 100 100 100 100 100 100 100 100 100 100 100 100 100 100 100 100 100 100 100 100 100 97 100 100 100 100 100 97 100 100 81 100 100 100 100 100 100 100
100 100 100 100 100 96 100 100 100 100 100 100 100 100 100 100 100 100 100 100 100 100 100 100 100 100 100 100 100 100 100 100 100 100 100 100 100 100 100 100 100 100 100